Weather in Bēne

Latvia     56°29′01″N   23°03′48″E
temp.,
°C
wind,
m/s
gust,
m/s
humid.,
%
clouds,
%
prec.,
mm/h
press.,
hPa
HPBL,
m
6 may, thu
thu600:00+6s3883100 0.0 997180
03:00+4ssw3992100 0.3 996237
06:00+3sw3119387 0.0 995346
09:00+4s51091100 0.1 9951029
12:00+4sw71397100 0.7 995944
15:00+4sw81597100 1.8 9971251
18:00+4sw81596100 0.3 9981256
21:00+4wsw71490100 0.6 9981127
7 may, fri
fri700:00+4sw61297100 0.2 10001095
03:00+4wsw51097100 0.3 1000913
06:00+4sw499596 0.1 1001777
09:00+4wsw3695100 0.3 1003680
12:00+6sw368599 0.2 1004641
15:00+10sw4660100 0.7 10031511
18:00+10wnw3454100 0.3 10031387
21:00+5n4889100 0.4 1004483
8 may, sat
sat800:00+3n3795100 0.0 1005338
03:00+1nw41090100 0.0 1006448
06:00+1nw4119299 0.0 1007622
09:00+5nw596819 0.0 10091142
12:00+9nw6941100 0.0 10092417
15:00+11nnw6832100 0.0 10102758
18:00+10nnw463680 0.0 10112310
21:00+5wnw36612 0.0 1013114
9 may, sun
sun900:00+1wsw36895 0.0 1015109
03:00+1sw379815 0.0 1016148
06:00+1ssw3898100 0.0 1017176
09:00+7sw4876100 0.0 1017406
12:00+11sw5750100 0.0 10181589
15:00+11ssw5849100 0.0 10171522
18:00+10s51174100 0.2 10161289
21:00+9s5147490 0.3 1015755
10 may, mon
mon1000:00+10ssw5147760 0.0 1016515
03:00+9ssw41385100 0.0 1016373
06:00+9s414828 0.0 1017356
09:00+13s513715 0.0 1017481
12:00+17s61159100 0.0 1017780
15:00+19s71055100 0.0 10171124
18:00+19s6116199 0.0 10161101
21:00+15sse51373100 0.0 1017600